This is the latest recevied weather packets stored in our database for station/object SQ5MBG-1. If no packets are shown the sender has not sent any weather packets the latest 1 day(s).
| Time | Temp. | Humidity | Pressure | Rain* | Wind** | Luminosity | Snow |
|---|---|---|---|---|---|---|---|
| 1778064858 | 25° C | 39% | 991.3 hPa | 0 mm | - | - | - |
| 1778064558 | 25° C | 39% | 991.5 hPa | 0 mm | - | - | - |
| 1778064258 | 25° C | 39% | 991.6 hPa | 0 mm | - | - | - |
| 1778063658 | 25.56° C | 38% | 991.7 hPa | 0 mm | - | - | - |
| 1778063358 | 25.56° C | 37% | 991.6 hPa | 0 mm | - | - | - |
| 1778063058 | 25.56° C | 37% | 991.5 hPa | 0 mm | - | - | - |
| 1778062758 | 25.56° C | 37% | 991.5 hPa | 0 mm | - | - | - |
| 1778062458 | 25.56° C | 37% | 991.6 hPa | 0 mm | - | - | - |
| 1778061858 | 25.56° C | 37% | 991.5 hPa | 0 mm | - | - | - |
| 1778060658 | 25° C | 37% | 991.5 hPa | 0 mm | - | - | - |
| 1778060358 | 25° C | 36% | 991.6 hPa | 0 mm | - | - | - |
| 1778060058 | 25° C | 36% | 991.6 hPa | 0 mm | - | - | - |
| 1778059758 | 25° C | 36% | 991.4 hPa | 0 mm | - | - | - |
| 1778059458 | 25.56° C | 35% | 991.4 hPa | 0 mm | - | - | - |
| 1778059158 | 25.56° C | 35% | 991.4 hPa | 0 mm | - | - | - |
| 1778058558 | 26.11° C | 35% | 991.5 hPa | 0 mm | - | - | - |
| 1778058258 | 26.11° C | 35% | 991.6 hPa | 0 mm | - | - | - |
| 1778057658 | 26.11° C | 35% | 991.5 hPa | 0 mm | - | - | - |
| 1778057358 | 26.11° C | 35% | 991.3 hPa | 0 mm | - | - | - |
| 1778057058 | 26.11° C | 36% | 991.3 hPa | 0 mm | - | - | - |
| 1778056758 | 26.67° C | 35% | 991.3 hPa | 0 mm | - | - | - |
| 1778056458 | 26.67° C | 36% | 991.4 hPa | 0 mm | - | - | - |
| 1778055858 | 26.67° C | 37% | 991 hPa | 0 mm | - | - | - |
| 1778055558 | 26.11° C | 37% | 991.2 hPa | 0 mm | - | - | - |
| 1778054958 | 26.11° C | 37% | 991.4 hPa | 0 mm | - | - | - |
* Rain latest hour (hover to see other rain measurements)
** Current wind speed in m/s (hover to see current wind gust speed)